Starlink 4113

decayed
NORAD ID: 53270 Int'l Des: 2022-086 Owner: SPXS Country: US Constellation: starlink
LEOCIRCULAR
Gruppe

Über Starlink 4113

Beschreibung wird geladen...

Höhenverlauf

Altitude vs Time

uPlot chart will show altitude changes over time

Zweizeiliger Elementsatz

1 53270U 22086AE 22222.30201052 .24301438 12221-4 25950-2 0 9998
2 53270 53.2069 317.7790 0015423 95.0846 13.6837 16.36277687 3302
Epoch: 10. Aug. 2022 • Age: 28367 hours

Aktueller Status

Position data unavailable
Startdatum 24. Juli 2022
Alter 3.2 years
Verglühungsdatum 10. Aug. 2022
Typ internet

Technische Details

Klassifizierung Payload
Masse 297.00 kg
Trockenmasse 275.00 kg
Gesamtmasse 297.00 kg
Länge 0.20 m
Durchmesser 2.80 m
Spannweite 9.00 m
Form Box + pan
Hersteller SPXS
Bus-Typ Starlink
Phasenstatus Unknown Transfer Status
Besitzer/Staat SPXS/US

Große Konstellationen

Loading constellations...